This demonstration page uses our WeatherBlox Daily Observations layout. Learn more.

Hourly Observations for March 24, 2019

Temp ( °F °C ) Dew Point ( °F °C ) Humidity (%) Winds ( mph kmh ) Pressure ( in mb ) Visibility ( mi km ) Precip ( " mm )
12:15 am 00:15 Cloudy with Mist and Fog 43 5.9 43 5.9 100 100 NW 8 13 29.9 1013 5 8.0467 0 0
12:35 am 00:35 Cloudy with Mist and Fog 43 6 43 6 100 100 NNW 9 15 29.91 1013 5 8.0467 0 0
12:55 am 00:55 Cloudy with Light Rain 43 6 43 6 100 100 NNW 10 17 29.91 1013 3 4.82802 0 0
1:15 am 01:15 Cloudy with Rain 43 6 43 6 100 100 NNW 10 17 29.92 1013 4 6.43736 0.02 0.508
1:35 am 01:35 Cloudy with Light Drizzle 42 5.8 42 5.8 100 100 NW 10 17 29.93 1014 4 6.43736 0.03 0.762
1:55 am 01:55 Cloudy with Rain 42 5.6 42 5.6 100 100 NW 13 20 29.94 1014 5 8.0467 0.03 0.762
2:15 am 02:15 Cloudy with Light Rain 42 5.5 42 5.5 100 100 NW 13 20 29.94 1014 4 6.43736 0.03 0.762
2:35 am 02:35 Cloudy 42 5.4 42 5.4 100 100 NW 15 24 29.95 1014 7 11.26538 0.03 0.762
2:55 am 02:55 Cloudy 42 5.3 42 5.3 100 100 NNW 15 24 29.97 1015 7 11.26538 0.03 0.762
3:15 am 03:15 Cloudy 41 5.2 41 5.2 100 100 NNW 13 20 29.98 1015 7 11.26538 0 0
3:35 am 03:35 Cloudy 42 5.3 41 5.2 99 99 NNW 13 20 29.98 1015 7 11.26538 0 0
3:55 am 03:55 Cloudy 42 5.3 41 5.2 99 99 NNW 13 20 29.98 1015 7 11.26538 0 0
4:15 am 04:15 Cloudy 42 5.3 41 5.2 99 99 N 15 24 29.97 1015 7 11.26538 0 0
4:35 am 04:35 Cloudy 42 5.3 41 5.2 99 99 N 10 17 29.98 1015 7 11.26538 0 0
4:55 am 04:55 Cloudy 41 5.1 41 5.1 100 100 NW 15 24 29.99 1015 7 11.26538 0 0
5:15 am 05:15 Cloudy 41 5.2 41 5 99 99 N 14 22 29.99 1015 10 16.0934 0 0
5:35 am 05:35 Cloudy 41 5 40 4.7 98 98 N 9 15 29.99 1016 10 16.0934 0 0
5:55 am 05:55 Cloudy 41 5 40 4.6 97 97 NW 12 19 30.01 1016 10 16.0934 0 0
6:15 am 06:15 Cloudy 40 4.7 40 4.5 99 99 NW 13 20 30.01 1016 7 11.26538 0 0
6:35 am 06:35 Cloudy 40 4.4 40 4.2 99 99 NW 15 24 30.02 1017 7 11.26538 0 0
6:55 am 06:55 Cloudy 40 4.2 39 4 99 99 NNW 14 22 30.03 1017 7 11.26538 0 0
7:15 am 07:15 Mostly Cloudy 39 3.8 38 3.6 99 99 NNW 15 24 30.03 1017 7 11.26538 0 0
7:35 am 07:35 Mostly Cloudy 39 3.7 38 3.6 99 99 NNW 15 24 30.03 1017 7 11.26538 0 0
7:55 am 07:55 Cloudy 39 3.7 38 3.6 99 99 NNW 13 20 30.04 1017 7 11.26538 0 0
8:15 am 08:15 Cloudy 39 4 39 4 100 100 NNW 13 20 30.06 1018 7 11.26538 0 0
8:35 am 08:35 Cloudy with Mist and Fog 39 4.1 39 4 99 99 NNW 8 13 30.07 1018 5 8.0467 0 0
8:55 am 08:55 Cloudy with Mist and Fog 40 4.3 40 4.2 99 99 NNW 9 15 30.07 1018 5 8.0467 0 0
9:15 am 09:15 Cloudy 41 4.8 40 4.7 99 99 N 10 17 30.08 1019 7 11.26538 0 0
9:35 am 09:35 Cloudy with Mist and Fog 41 5.1 41 4.8 98 98 N 9 15 30.09 1019 5 8.0467 0 0
9:55 am 09:55 Cloudy with Mist and Fog 41 5.1 41 5 99 99 N 12 19 30.1 1019 5 8.0467 0 0
10:15 am 10:15 Cloudy 42 5.5 41 5.1 97 97 N 10 17 30.09 1019 7 11.26538 0 0
10:35 am 10:35 Cloudy 42 5.7 42 5.4 98 98 N 9 15 30.1 1019 7 11.26538 0 0
10:55 am 10:55 Cloudy 43 6 42 5.5 97 97 NNW 8 13 30.11 1020 7 11.26538 0 0
11:15 am 11:15 Cloudy 44 6.4 42 5.7 95 95 N 10 17 30.11 1019 7 11.26538 0 0
11:35 am 11:35 Cloudy 45 7.1 43 6.3 95 95 N 8 13 30.1 1019 7 11.26538 0 0
11:55 am 11:55 Cloudy 46 8 45 7 93 93 N 9 15 30.09 1019 10 16.0934 0 0
12:15 pm 12:15 Cloudy 48 8.7 46 7.5 92 92 N 10 17 30.08 1019 7 11.26538 0 0
12:35 pm 12:35 Cloudy 48 9 45 7.3 89 89 N 12 19 30.08 1019 10 16.0934 0 0
12:55 pm 12:55 Cloudy 48 9.1 45 7 87 87 NNW 12 19 30.08 1019 10 16.0934 0 0
1:15 pm 13:15 Cloudy 48 9.1 45 7 87 87 NNW 10 17 30.09 1019 10 16.0934 0 0
1:35 pm 13:35 Cloudy 50 10.1 46 7.7 85 85 NNW 12 19 30.08 1019 10 16.0934 0 0
1:55 pm 13:55 Cloudy 49 9.7 45 7.1 84 84 NW 10 17 30.09 1019 10 16.0934 0 0
2:15 pm 14:15 Cloudy 50 10 45 7.4 84 84 NNW 13 20 30.08 1019 10 16.0934 0 0
2:35 pm 14:35 Cloudy 49 9.5 45 7 85 85 NNW 9 15 30.09 1019 10 16.0934 0 0
2:55 pm 14:55 Cloudy 49 9.7 44 6.8 82 82 NNW 9 15 30.09 1019 10 16.0934 0 0
3:15 pm 15:15 Cloudy 50 10.1 44 6.7 80 80 NNW 6 9 30.08 1019 10 16.0934 0 0
3:35 pm 15:35 Cloudy 50 10.2 44 6.9 80 80 N 9 15 30.08 1019 10 16.0934 0 0
3:55 pm 15:55 Cloudy 50 10 44 6.9 81 81 N 12 19 30.08 1019 10 16.0934 0 0
4:15 pm 16:15 Cloudy 50 10.1 44 6.6 79 79 N 10 17 30.08 1019 10 16.0934 0 0
4:35 pm 16:35 Cloudy 50 10.1 44 6.8 80 80 N 12 19 30.09 1019 10 16.0934 0 0
4:55 pm 16:55 Cloudy 50 10 44 6.7 80 80 N 9 15 30.09 1019 10 16.0934 0 0
5:15 pm 17:15 Cloudy 50 10.1 44 6.6 79 79 N 9 15 30.09 1019 10 16.0934 0 0
5:35 pm 17:35 Cloudy 51 10.5 44 6.7 78 78 N 9 15 30.09 1019 10 16.0934 0 0
5:55 pm 17:55 Cloudy 51 10.6 44 6.8 78 78 N 9 15 30.1 1019 10 16.0934 0 0
6:15 pm 18:15 Cloudy 52 11 44 6.7 75 75 N 10 17 30.09 1019 10 16.0934 0 0
6:35 pm 18:35 Cloudy 50 10.1 44 6.8 80 80 N 10 17 30.11 1020 10 16.0934 0 0
6:55 pm 18:55 Cloudy 50 9.9 44 6.5 80 80 N 9 15 30.12 1020 10 16.0934 0 0
7:15 pm 19:15 Cloudy 49 9.5 44 6.5 82 82 N 7 11 30.14 1021 10 16.0934 0 0
7:35 pm 19:35 Cloudy 49 9.3 44 6.5 83 83 N 5 7 30.14 1021 10 16.0934 0 0
7:55 pm 19:55 Cloudy 48 9.1 44 6.4 83 83 NNW 3 6 30.15 1021 10 16.0934 0 0
8:15 pm 20:15 Cloudy 48 8.9 44 6.5 85 85 NNW 5 7 30.15 1021 10 16.0934 0 0
8:35 pm 20:35 Cloudy 48 9 44 6.5 85 85 NNW 5 7 30.16 1021 10 16.0934 0 0
8:55 pm 20:55 Cloudy 47 8.6 44 6.5 87 87 N 3 6 30.18 1022 10 16.0934 0 0
9:15 pm 21:15 Cloudy 47 8.5 44 6.5 87 87 N 3 6 30.19 1022 10 16.0934 0 0
9:35 pm 21:35 Cloudy 47 8.3 43 6.3 87 87 N 6 9 30.19 1022 10 16.0934 0 0
9:55 pm 21:55 Cloudy 47 8.1 43 6.1 87 87 N 8 13 30.21 1023 10 16.0934 0 0
10:15 pm 22:15 Cloudy 46 8 42 5.8 86 86 N 10 17 30.22 1023 10 16.0934 0 0
10:35 pm 22:35 Cloudy 46 7.7 42 5.5 86 86 N 8 13 30.22 1023 10 16.0934 0 0
10:55 pm 22:55 Cloudy 46 7.5 41 5.1 85 85 NNE 10 17 30.24 1024 10 16.0934 0 0
11:15 pm 23:15 Cloudy 45 7.3 41 5 85 85 NNE 9 15 30.24 1024 10 16.0934 0 0
11:35 pm 23:35 Cloudy 45 7.1 41 5 87 87 NNE 9 15 30.25 1024 10 16.0934 0 0
11:55 pm 23:55 Cloudy 45 7.1 41 5 87 87 NNE 9 15 30.25 1024 10 16.0934 0 0

Powered by AerisWeather